Regional Weather Roundup
Issued by NWS Portland, ME

Current Version | Previous Version | Text Only | Print | Product List | Glossary Off
Versions: 1 2 3 4 5 6 7 8 9 10 11 12 13 14 15 16 17 18 19 20 21 22 23 24 25 26 27 28 29 30 31 32 33 34 35 36 37 38 39 40 41 42 43 44 45 46 47 48 49 50
000 ASUS41 KGYX 211705 RWRGYX WEATHER ROUNDUP FOR MAINE AND NEW HAMPSHIRE NATIONAL WEATHER SERVICE GRAY ME 100 PM EDT THU MAR 21 2019 MEZ002-005-006-010-012-015-018-020-021-024-026-027-029-211800- MAINE CITY SKY/WX TMP DP RH WIND PRES REMARKS PORTLAND PTSUNNY 45 26 47 S13G24 30.17F SANFORD FAIR 47 23 38 S13G23 30.16F BAR HARBOR CLOUDY 43 30 60 S16G22 30.21F WISCASSET FAIR 44 23 43 SW14G24 30.20F ROCKLAND FAIR 43 30 60 S12G20 30.21F FRYEBURG PTSUNNY 46 18 32 S13G21 30.11F LEWISTONAUBURN FAIR 45 20 36 S14G24 30.13F AUGUSTA N/A N/A N/A N/A MISG 30.16 WATERVILLE PTSUNNY 46 20 35 S9G18 30.12F BANGOR PTSUNNY 47 27 45 S14 30.15F GREENVILLE N/A 39 23 52 VRB7G17 30.03F MILLINOCKET CLOUDY 43 25 49 VRB7 30.11F HOULTON PTSUNNY 44 25 47 S10G18 30.07F PRESQUE ISLE FAIR 41 27 57 SE9 30.05F FRENCHVILLE CLOUDY 43 22 43 S9 30.00F CARIBOU PTSUNNY 40 28 62 S7 30.03F $$ NHZ002-005-008-009-011-012-014-211800- NEW HAMPSHIRE CITY SKY/WX TMP DP RH WIND PRES REMARKS ROCHESTER PTSUNNY 48 26 42 SE13G21 30.14F NASHUA CLOUDY 47 27 45 S3 30.14F MANCHESTER CLOUDY 48 24 39 S10 30.12F CONCORD CLOUDY 47 25 42 S12 30.13F PLYMOUTH FAIR 44 26 48 CALM 30.11F BERLIN CLOUDY 44 26 49 S12 30.04F WHITEFIELD CLOUDY 45 27 49 SW7 30.06F JAFFREY CLOUDY 43 27 53 S13 30.11S KEENE LGT RAIN 40 33 76 S6 30.13S LEBANON FAIR 47 30 51 SW8 30.08F MT WASHINGTON SNOW 19 19 100 S25G37 N/A VSB 1/16WCI 2 $$ VTZ005-007-008-211800- VERMONT CITY SKY/WX TMP DP RH WIND PRES REMARKS ST JOHNSBURY N/A 43 28 55 MISG 30.04F MONTPELIER CLOUDY 41 29 62 S9 30.07F BURLINGTON CLOUDY 45 30 55 S16G24 30.02F $$ MAZ007-012-024-CTZ003-RIZ002-NYZ038-NYZ072-211800- SOUTHERN NEW ENGLAND AND NY CITY SKY/WX TMP DP RH WIND PRES REMARKS BOSTON CLOUDY 51 25 36 S21 30.15F WORCESTER CLOUDY 44 28 53 SE17 30.11F PROVIDENCE PTSUNNY 49 32 52 S15G23 30.15F HARTFORD LGT RAIN 48 32 53 SE6 30.12F ALBANY CLOUDY 45 35 68 S12 30.08F NEW YORK CITY LGT RAIN 44 39 82 NE17 30.03F $$ ANZ081-ANZ082-ANZ150-NHZ014-MEZ023>029-211800- COASTAL MARINE OBSERVATIONS STATION/POSITION TIME TEMP WIND PRES WAVE AIR SEA DIR/SP/G HT/PER (UTC) (F) (DEG/KT/KT) (MB) (FT/S) MOUNT DESERT ROC 1700 40 170/ 17/ 19 1023.5F MATINICUS ROCK 1600 40 190/ 17/ 19 1023.0F ISLE OF SHOALS 1600 39 140/ 15/ 17 1021.7F JEFFREYS LEDGE 1638 39 N/A 3/ 4 CASHES LEDGE BUO 1650 42 40 1022.8F 3/ 4 $$ .............KEY.............. WCI - WIND CHILL TC - TEMPERATURE IN CELSIUS VSB - VISIBILITY IN MILES HX - HEAT INDEX FAIR- INDICATES FEW OR NO CLOUDS BELOW 12,000 FT, WITH NO SIGNIFICANT WEATHER AND/OR OBSTRUCTIONS TO VISIBILITY.

USA.gov is the U.S. government's official web portal to all federal, state and local government web resources and services.